Location: Newark
(54.6833°N, 25.3167°E)
Time: 03:33:05
(UTC+00:00)

N. Korean satellite - Visible Passes

Search period start: 30 September 2020 00:00
Search period end: 10 October 2020 00:00
Orbit: 455 x 503 km, 97.2° (Epoch: 29 September)

Date Brightness Start Highest point End Pass type
(mag) Time Alt. Az. Time Alt. Az. Time Alt. Az.
30 Sep 9.6 03:07:48 10° NE 03:10:36 21° E 03:13:21 10° SE visible
01 Oct 10.2 02:42:53 10° ENE 02:44:16 12° E 02:45:38 10° ESE visible
03 Oct 9.0 03:22:43 10° NNE 03:25:55 28° E 03:29:01 10° SSE visible
04 Oct 9.8 02:57:17 10° NE 02:59:37 16° E 03:01:55 10° SE visible
05 Oct 10.5 16:21:07 10° WSW 16:22:36 12° W 16:24:04 10° WNW visible
06 Oct 8.2 03:37:43 10° NNE 03:41:09 40° E 03:44:29 10° S visible
07 Oct 9.4 03:12:02 10° NE 03:14:54 22° E 03:17:43 10° SE visible
08 Oct 10.0 02:46:55 10° ENE 02:48:33 13° E 02:50:11 10° ESE visible
09 Oct 7.3 03:52:45 10° NNE 03:56:18 58° E 03:59:46 10° S visible
09 Oct 10.2 16:09:20 10° SW 16:11:31 15° W 16:13:43 10° NW visible
